Bellaire, MI

9:10 AM EDT on August 23, 2017 (GMT -0400)
Antrim County

Weather History for KACB - October, 2012

Change the Weather History Date:

Wednesday, October 24, 2012

  Actual Average (KCVX) Record (KCVX)
Temperature  
Mean Temperature 62 °F -  
Max Temperature 70 °F 55 °F 69 °F (2012)
Min Temperature 55 °F 46 °F 33 °F (2002)
Degree Days  
Heating Degree Days 2    
Growing Degree Days 12 (Base 50)    
Moisture  
Dew Point 57 °F    
Average Humidity 81    
Maximum Humidity 90    
Minimum Humidity 71    
Precipitation  
Precipitation 0.00 in - - ()
Sea Level Pressure  
Sea Level Pressure 29.93 in    
Wind  
Wind Speed 8 mph (East)    
Max Wind Speed 14 mph    
Max Gust Speed 22 mph    
Visibility 10 miles    
Events Rain    
Averages and records for this station are not official NWS values.
T = Trace of Precipitation, MM = Missing Value Source: NWS Daily Summary

Daily Weather History Graph

Daily Weather History Graph

Search for Another Location

Airport or City:

Trip Planner

Search our weather history database for the weather conditions in past years. The results will help you decide how hot, cold, wet, or windy it might be!

Date:

Astronomy

Oct. 24, 2012 Rise Set
Actual Time 8:09 AM EDT 6:40 PM EDT
Civil Twilight 7:38 AM EDT 7:10 PM EDT
Nautical Twilight 7:04 AM EDT 7:44 PM EDT
Astronomical Twilight 6:30 AM EDT 8:18 PM EDT
Moon 4:06 PM EDT (10/24) 2:50 AM EDT (10/24)
Length of Visible Light 11h 31m
Length of Day
10h 31m
Waxing Gibbous, 76% of the Moon is Illuminated
Oct 24
Waxing Gibbous
Oct 29
Full
Nov 6
Last Quarter
Nov 13
New
Nov 20
First Quarter

Hourly Weather History & Observations

Time (EDT) Temp. Dew Point Humidity Pressure Visibility Wind Dir Wind Speed Gust Speed Precip Events Conditions
12:12 AM 55.8 °F 51.1 °F 84% 29.99 in 10.0 mi East 6.9 mph 19.6 mph N/A   Overcast
12:33 AM 55.8 °F 51.3 °F 85% 29.98 in 10.0 mi East 8.1 mph - N/A   Overcast
12:52 AM 55.8 °F 51.1 °F 84% 29.98 in 10.0 mi East 13.8 mph 18.4 mph N/A   Overcast
1:12 AM 55.8 °F 51.3 °F 85% 29.98 in 10.0 mi East 6.9 mph 20.7 mph N/A   Overcast
1:33 AM 55.8 °F 51.3 °F 85% 29.98 in 10.0 mi ENE 3.5 mph - N/A   Overcast
1:52 AM 55.9 °F 51.3 °F 84% 29.98 in 10.0 mi ENE 3.5 mph - N/A   Overcast
2:12 AM 55.9 °F 51.3 °F 84% 29.98 in 10.0 mi East 6.9 mph - N/A   Overcast
2:33 AM 55.8 °F 51.8 °F 87% 29.97 in 10.0 mi East 9.2 mph 17.3 mph N/A Rain Rain
2:52 AM 55.4 °F 52.0 °F 88% 29.97 in 10.0 mi ESE 12.7 mph 19.6 mph N/A   Light Drizzle
3:13 AM 55.4 °F 52.2 °F 89% 29.97 in 7.0 mi East 9.2 mph - N/A   Overcast
3:32 AM 55.4 °F 52.3 °F 89% 29.97 in 10.0 mi East 5.8 mph - N/A   Overcast
3:52 AM 55.6 °F 52.3 °F 89% 29.96 in 10.0 mi East 6.9 mph - N/A   Overcast
4:13 AM 55.6 °F 52.3 °F 89% 29.96 in 10.0 mi East 8.1 mph - N/A   Overcast
4:32 AM 55.8 °F 52.2 °F 88% 29.95 in 10.0 mi East 6.9 mph - N/A   Overcast
4:52 AM 55.9 °F 52.3 °F 88% 29.96 in 10.0 mi East 6.9 mph - N/A   Overcast
5:13 AM 56.3 °F 52.5 °F 87% 29.96 in 10.0 mi East 8.1 mph - N/A   Overcast
5:32 AM 56.3 °F 52.7 °F 88% 29.95 in 10.0 mi East 8.1 mph 17.3 mph N/A   Overcast
5:52 AM 56.7 °F 52.7 °F 87% 29.95 in 10.0 mi East 9.2 mph 16.1 mph N/A   Overcast
6:13 AM 56.5 °F 52.9 °F 88% 29.96 in 10.0 mi ENE 6.9 mph - N/A   Overcast
6:32 AM 55.8 °F 52.7 °F 89% 29.96 in 10.0 mi NE 5.8 mph - N/A   Overcast
6:52 AM 56.3 °F 53.2 °F 89% 29.96 in 10.0 mi East 9.2 mph - N/A   Overcast
7:13 AM 56.3 °F 53.4 °F 90% 29.96 in 10.0 mi ESE 9.2 mph - N/A   Overcast
7:32 AM 56.7 °F 53.2 °F 88% 29.96 in 10.0 mi ESE 8.1 mph - N/A   Overcast
7:53 AM 56.7 °F 53.1 °F 88% 29.97 in 10.0 mi ESE 8.1 mph - N/A   Overcast
8:13 AM 56.7 °F 53.2 °F 88% 29.96 in 10.0 mi ESE 11.5 mph - N/A   Overcast
8:32 AM 57.2 °F 53.8 °F 88% 29.96 in 10.0 mi ESE 12.7 mph 17.3 mph N/A   Overcast
8:53 AM 57.9 °F 54.0 °F 87% 29.96 in 10.0 mi ENE 5.8 mph - N/A   Overcast
9:13 AM 58.3 °F 54.5 °F 87% 29.96 in 10.0 mi ENE 5.8 mph - N/A   Overcast
9:32 AM 59.0 °F 55.4 °F 88% 29.95 in 10.0 mi ENE 4.6 mph - N/A   Overcast
9:53 AM 59.4 °F 55.6 °F 87% 29.96 in 10.0 mi East 6.9 mph - N/A   Overcast
10:32 AM 60.8 °F 56.5 °F 86% 29.96 in 10.0 mi East 5.8 mph - N/A   Overcast
10:53 AM 61.9 °F 57.0 °F 84% 29.96 in 10.0 mi ESE 5.8 mph - N/A   Overcast
11:12 AM 62.6 °F 57.2 °F 82% 29.96 in 10.0 mi ESE 5.8 mph 18.4 mph N/A   Overcast
11:33 AM 63.1 °F 57.2 °F 81% 29.96 in 10.0 mi ESE 9.2 mph - N/A   Overcast
11:53 AM 64.0 °F 57.2 °F 78% 29.96 in 10.0 mi SE 12.7 mph 19.6 mph N/A   Overcast
12:12 PM 64.6 °F 57.4 °F 77% 29.95 in 10.0 mi SE 10.4 mph 19.6 mph N/A   Overcast
12:33 PM 65.7 °F 57.7 °F 76% 29.95 in 10.0 mi SE 10.4 mph - N/A   Overcast
12:52 PM 66.2 °F 57.7 °F 74% 29.95 in 10.0 mi SE 8.1 mph - N/A   Overcast
1:13 PM 66.4 °F 57.9 °F 74% 29.94 in 10.0 mi ESE 9.2 mph - N/A   Overcast
1:33 PM 67.1 °F 58.3 °F 73% 29.94 in 10.0 mi ESE 6.9 mph - N/A   Overcast
1:52 PM 66.7 °F 58.3 °F 74% 29.93 in 10.0 mi SE 6.9 mph - N/A   Overcast
2:13 PM 67.3 °F 58.8 °F 74% 29.93 in 10.0 mi ESE 6.9 mph - N/A   Overcast
2:33 PM 67.6 °F 59.2 °F 74% 29.91 in 10.0 mi East 9.2 mph - N/A   Overcast
2:52 PM 68.2 °F 59.2 °F 73% 29.91 in 10.0 mi East 10.4 mph - N/A   Overcast
3:13 PM 68.9 °F 59.4 °F 72% 29.90 in 10.0 mi East 8.1 mph - N/A   Overcast
3:33 PM 69.8 °F 59.9 °F 71% 29.90 in 10.0 mi East 12.7 mph - N/A   Overcast
3:52 PM 69.1 °F 59.7 °F 72% 29.90 in 10.0 mi East 10.4 mph - N/A   Overcast
4:13 PM 70.0 °F 60.1 °F 71% 29.90 in 10.0 mi ESE 12.7 mph - N/A   Overcast
4:33 PM 69.6 °F 59.9 °F 71% 29.90 in 10.0 mi East 10.4 mph - N/A   Mostly Cloudy
4:53 PM 69.4 °F 60.1 °F 72% 29.90 in 10.0 mi ESE 9.2 mph - N/A   Overcast
5:13 PM 69.1 °F 60.3 °F 73% 29.90 in 10.0 mi SE 9.2 mph - N/A   Overcast
5:32 PM 68.9 °F 60.6 °F 75% 29.90 in 10.0 mi East 9.2 mph - N/A   Overcast
5:53 PM 68.5 °F 60.6 °F 76% 29.90 in 10.0 mi East 9.2 mph - N/A   Overcast
6:13 PM 68.0 °F 60.6 °F 77% 29.90 in 10.0 mi East 10.4 mph - N/A   Overcast
6:32 PM 67.3 °F 60.3 °F 78% 29.90 in 10.0 mi East 9.2 mph - N/A   Mostly Cloudy
6:53 PM 67.1 °F 60.4 °F 79% 29.90 in 10.0 mi East 10.4 mph - N/A   Mostly Cloudy
7:13 PM 66.9 °F 60.6 °F 80% 29.90 in 10.0 mi East 6.9 mph - N/A   Overcast
7:32 PM 66.6 °F 60.6 °F 81% 29.90 in 10.0 mi East 9.2 mph - N/A   Overcast
7:53 PM 67.1 °F 60.8 °F 80% 29.90 in 10.0 mi East 9.2 mph - N/A   Overcast
8:13 PM 67.1 °F 60.8 °F 80% 29.90 in 10.0 mi East 8.1 mph - N/A   Overcast
8:32 PM 66.7 °F 60.8 °F 81% 29.90 in 10.0 mi East 8.1 mph - N/A   Mostly Cloudy
8:53 PM 66.6 °F 60.8 °F 82% 29.89 in 10.0 mi East 8.1 mph - N/A   Mostly Cloudy
9:13 PM 66.4 °F 61.0 °F 83% 29.88 in 10.0 mi East 6.9 mph - N/A   Overcast
9:33 PM 67.3 °F 61.0 °F 80% 29.88 in 10.0 mi East 8.1 mph - N/A   Overcast
9:53 PM 68.0 °F 61.3 °F 79% 29.87 in 10.0 mi ESE 6.9 mph - N/A   Overcast
10:13 PM 68.0 °F 61.2 °F 79% 29.86 in 10.0 mi East 6.9 mph - N/A   Overcast
10:33 PM 68.4 °F 61.3 °F 78% 29.86 in 10.0 mi ESE 10.4 mph - N/A   Mostly Cloudy
10:53 PM 69.1 °F 61.5 °F 77% 29.87 in 10.0 mi ESE 8.1 mph 21.9 mph N/A   Overcast
11:13 PM 68.7 °F 61.2 °F 77% 29.86 in 10.0 mi Calm Calm - N/A   Mostly Cloudy
11:33 PM 68.4 °F 61.0 °F 77% 29.86 in 10.0 mi East 4.6 mph - N/A   Overcast
11:52 PM 68.7 °F 60.8 °F 76% 29.85 in 10.0 mi SE 8.1 mph - N/A   Overcast